Elevation-1

operational
NORAD ID: 62677 Int'l Des: 2025-009 Owner: ALMAG/XDLINX Country: UK
LEOCIRCULARRETROGRADESSO

关于 Elevation-1

正在加载描述...

实时位置

正在加载3D地球...

即将过境

高度历史

Altitude vs Time

uPlot chart will show altitude changes over time

两行轨道根数

1 62677U 25009BW 26062.15454647 .00029180 00000-0 82825-3 0 9994
2 62677 97.3915 146.4992 0003346 347.5907 12.5254 15.36160309120512
Epoch: Mar 3, 2026 • Age: 24 hours

当前状态

高度 466.1 km
速度 7.63 km/s
星下点 -29.18°S, 8.87°W
发射日期 Jan 14, 2025
运行时间 1.1 years
类型 other

技术详情

分类 Payload
质量 10.00 kg
干质量 10.00 kg
总质量 10.00 kg
长度 0.30 m
直径 0.20 m
跨度 0.30 m
形状 Box+2 pan
制造商 XDLINX
平台类型 Cubesat 6U
阶段状态 In Orbit
所有者/国家 ALMAG/XDLINX/UK

大型星座

Loading constellations...